Pueblo, CO

5:33 AM MDT on August 25, 2016 (GMT -0600)
Pueblo Memorial

Weather History for KPUB - November, 2012

Change the Weather History Date:

Sunday, November 25, 2012

  Actual Average Record
Temperature  
Mean Temperature 42 °F 35 °F  
Max Temperature 62 °F 51 °F 82 °F (1990)
Min Temperature 21 °F 19 °F -6 °F (1993)
Degree Days  
Heating Degree Days 23 30  
Month to date heating degree days 516 614  
Since 1 July heating degree days 1006 1124  
Cooling Degree Days 0 0  
Month to date cooling degree days 0 0  
Year to date cooling degree days 1322 897  
Moisture  
Dew Point 6 °F    
Average Humidity 25    
Maximum Humidity 37    
Minimum Humidity 12    
Precipitation  
Precipitation 0.00 in 0.01 in 0.19 in (1943)
Month to date precipitation T 0.39  
Year to date precipitation 4.70 12.11  
Snow  
Snow 0.00 in 0.20 in 2.80 in (1943)
Month to date snowfall T 3.5  
Since 1 July snowfall 1.6 5.1  
Since 1 September snowfall 1.6 5.1  
Snow Depth 0.00 in    
Sea Level Pressure  
Sea Level Pressure 29.87 in    
Wind  
Wind Speed 5 mph (NE)    
Max Wind Speed 16 mph    
Max Gust Speed 18 mph    
Visibility 10 miles    
Events      
T = Trace of Precipitation, MM = Missing Value Source: NWS Daily Summary

Daily Weather History Graph

Daily Weather History Graph

Search for Another Location

Airport or City:

Trip Planner

Search our weather history database for the weather conditions in past years. The results will help you decide how hot, cold, wet, or windy it might be!

Date:

Astronomy

Nov. 25, 2012 Rise Set
Actual Time 6:50 AM MST 4:39 PM MST
Civil Twilight 6:21 AM MST 5:08 PM MST
Nautical Twilight 5:49 AM MST 5:40 PM MST
Astronomical Twilight 5:17 AM MST 6:12 PM MST
Moon 2:56 PM MST 4:08 AM MST
Length of Visible Light 10h 46m
Length of Day
9h 49m
Waxing Gibbous, 93% of the Moon is Illuminated
Nov 25
Waxing Gibbous
Nov 28
Full
Dec 6
Last Quarter
Dec 13
New
Dec 19
First Quarter

Hourly Weather History & Observations

Time (MST) Temp. Windchill Dew Point Humidity Pressure Visibility Wind Dir Wind Speed Gust Speed Precip Events Conditions
12:53 AM 37.0 °F 32.4 °F 1.9 °F 23% 29.86 in 10.0 mi SW 5.8 mph - N/A   Clear
1:53 AM 30.0 °F - -0.0 °F 28% 29.88 in 10.0 mi Calm Calm - N/A   Clear
2:53 AM 26.1 °F 19.4 °F -2.0 °F 30% 29.89 in 10.0 mi East 5.8 mph - N/A   Clear
3:53 AM 28.9 °F 25.2 °F -0.0 °F 29% 29.88 in 10.0 mi NNE 3.5 mph - N/A   Clear
4:53 AM 27.0 °F 20.5 °F 3.0 °F 36% 29.91 in 10.0 mi WSW 5.8 mph - N/A   Clear
5:53 AM 23.0 °F - -2.0 °F 34% 29.96 in 10.0 mi Calm Calm - N/A   Clear
6:53 AM 26.1 °F - 3.0 °F 37% 29.96 in 10.0 mi Calm Calm - N/A   Clear
7:53 AM 30.0 °F 26.5 °F 1.0 °F 29% 29.94 in 10.0 mi Variable 3.5 mph - N/A   Clear
8:53 AM 37.0 °F 34.5 °F 3.9 °F 25% 29.93 in 10.0 mi WSW 3.5 mph - N/A   Clear
9:53 AM 43.0 °F - 5.0 °F 21% 29.94 in 10.0 mi Calm Calm - N/A   Clear
10:53 AM 48.0 °F - 6.1 °F 18% 29.91 in 10.0 mi Calm Calm - N/A   Clear
11:53 AM 53.1 °F - 7.0 °F 16% 29.84 in 10.0 mi Calm Calm - N/A   Clear
12:53 PM 55.9 °F - 7.0 °F 14% 29.79 in 10.0 mi ESE 5.8 mph - N/A   Clear
1:53 PM 61.0 °F - 8.1 °F 12% 29.76 in 10.0 mi SSE 9.2 mph - N/A   Clear
2:53 PM 61.0 °F - 8.1 °F 12% 29.76 in 10.0 mi SE 11.5 mph - N/A   Clear
3:53 PM 59.0 °F - 10.0 °F 14% 29.76 in 10.0 mi ESE 6.9 mph - N/A   Clear
4:53 PM 52.0 °F - 8.1 °F 17% 29.78 in 10.0 mi Calm Calm - N/A   Clear
5:53 PM 42.1 °F 38.4 °F 5.0 °F 22% 29.84 in 10.0 mi NNE 5.8 mph - N/A   Clear
6:53 PM 39.9 °F 33.4 °F 6.1 °F 25% 29.86 in 10.0 mi North 10.4 mph - N/A   Clear
7:53 PM 39.9 °F 36.7 °F 9.0 °F 28% 29.88 in 10.0 mi NNW 4.6 mph - N/A   Clear
8:53 PM 41.0 °F 34.7 °F 12.9 °F 32% 29.87 in 10.0 mi North 10.4 mph - N/A   Clear
9:53 PM 41.0 °F 37.1 °F 12.0 °F 31% 29.89 in 10.0 mi North 5.8 mph - N/A   Clear
10:53 PM 39.0 °F 34.8 °F 10.9 °F 32% 29.91 in 10.0 mi North 5.8 mph - N/A   Clear
11:53 PM 34.0 °F 28.8 °F 12.9 °F 42% 29.96 in 10.0 mi NNE 5.8 mph - N/A   Clear